EN

Hourly Weather Smolan

Today, 22 January, Friday

Time Temperature Precipitation Wind Pressure Humidity
00:00 -1°C° 0 mm 1 mps 656 mmHg 88%
01:00 -1°C° 0 mm 1 mps 656 mmHg 88%
02:00 -1°C° 0 mm 1 mps 656 mmHg 89%
03:00 -1°C° 0 mm 1 mps 656 mmHg 89%
04:00 0°C° 0 mm 1 mps 655 mmHg 89%
05:00 0°C° 0 mm 1 mps 655 mmHg 89%
06:00 0°C° 0 mm 1 mps 655 mmHg 89%
07:00 0°C° 0 mm 1 mps 655 mmHg 89%
08:00 0°C° 0 mm 1 mps 655 mmHg 88%
09:00 +2°C° 0 mm 1 mps 656 mmHg 84%
10:00 +2°C° 0 mm 2 mps 656 mmHg 79%
11:00 +4°C° 0 mm 2 mps 656 mmHg 75%
12:00 +4°C° 0 mm 2 mps 656 mmHg 75%
13:00 +4°C° 0 mm 2 mps 655 mmHg 74%
14:00 +5°C° 0 mm 2 mps 655 mmHg 74%
15:00 +4°C° 0 mm 2 mps 655 mmHg 80%
16:00 +3°C° 0 mm 2 mps 654 mmHg 85%
17:00 +2°C° 0 mm 2 mps 654 mmHg 91%
18:00 +1°C° 0 mm 2 mps 654 mmHg 92%
19:00 +1°C° 0 mm 2 mps 653 mmHg 93%
20:00 +1°C° 0 mm 2 mps 653 mmHg 94%
21:00 +1°C° 0 mm 2 mps 653 mmHg 94%
22:00 +1°C° 0 mm 2 mps 653 mmHg 94%
23:00 +1°C° 0 mm 2 mps 653 mmHg 95%

Tomorrow, 23 January, Saturday

Time Temperature Precipitation Wind Pressure Humidity
00:00 +1°C° 0 mm 2 mps 653 mmHg 95%
01:00 +1°C° 0 mm 2 mps 652 mmHg 95%
02:00 +1°C° 0 mm 2 mps 652 mmHg 95%
03:00 +1°C° 0 mm 2 mps 652 mmHg 95%
04:00 +1°C° 0 mm 2 mps 652 mmHg 95%
05:00 +1°C° 0 mm 2 mps 651 mmHg 95%
06:00 +1°C° 0 mm 2 mps 651 mmHg 95%
07:00 +1°C° 0 mm 2 mps 651 mmHg 95%
08:00 +1°C° 0 mm 2 mps 651 mmHg 95%
09:00 +2°C° 0 mm 2 mps 651 mmHg 92%
10:00 +2°C° 0 mm 3 mps 651 mmHg 90%
11:00 +3°C° 0 mm 3 mps 651 mmHg 87%
12:00 +3°C° 0.1 mm 3 mps 651 mmHg 86%
13:00 +3°C° 0.1 mm 3 mps 650 mmHg 85%
14:00 +4°C° 0.1 mm 4 mps 650 mmHg 84%
15:00 +3°C° 0.4 mm 3 mps 649 mmHg 88%
16:00 +2°C° 0.4 mm 3 mps 648 mmHg 92%
17:00 +2°C° 0.4 mm 3 mps 648 mmHg 95%
18:00 +1°C° 0.6 mm 4 mps 647 mmHg 95%
19:00 +1°C° 0.6 mm 5 mps 647 mmHg 95%
20:00 +1°C° 0.6 mm 5 mps 646 mmHg 95%
21:00 +1°C° 1.5 mm 5 mps 646 mmHg 95%
22:00 +1°C° 1.5 mm 5 mps 646 mmHg 95%
23:00 +1°C° 1.5 mm 5 mps 646 mmHg 96%

Day after tomorrow, 24 January, Sunday

Time Temperature Precipitation Wind Pressure Humidity
00:00 +1°C° 0.9 mm 5 mps 646 mmHg 95%
01:00 +1°C° 0.9 mm 5 mps 646 mmHg 94%
02:00 +1°C° 0.9 mm 4 mps 645 mmHg 93%
03:00 0°C° 0.1 mm 4 mps 645 mmHg 93%
04:00 0°C° 0.1 mm 3 mps 645 mmHg 93%
05:00 +1°C° 0.1 mm 2 mps 645 mmHg 94%
06:00 +1°C° 0 mm 2 mps 645 mmHg 93%
07:00 -1°C° 0 mm 2 mps 645 mmHg 93%
08:00 -1°C° 0 mm 2 mps 645 mmHg 93%
09:00 0°C° 0 mm 3 mps 646 mmHg 85%
10:00 +2°C° 0 mm 3 mps 646 mmHg 78%
11:00 +3°C° 0 mm 4 mps 647 mmHg 70%
12:00 +4°C° 0 mm 4 mps 647 mmHg 69%
13:00 +4°C° 0 mm 4 mps 647 mmHg 69%
14:00 +3°C° 0 mm 5 mps 647 mmHg 68%
15:00 +3°C° 0 mm 4 mps 646 mmHg 74%
16:00 +3°C° 0 mm 3 mps 646 mmHg 80%
17:00 +2°C° 0 mm 3 mps 646 mmHg 86%
18:00 +2°C° 0 mm 3 mps 646 mmHg 88%
19:00 +2°C° 0 mm 2 mps 646 mmHg 90%
20:00 +2°C° 0 mm 2 mps 646 mmHg 92%
21:00 +2°C° 0.1 mm 2 mps 645 mmHg 92%
22:00 +2°C° 0.1 mm 2 mps 645 mmHg 93%
23:00 +2°C° 0.1 mm 2 mps 645 mmHg 94%

25 January, Monday

Time Temperature Precipitation Wind Pressure Humidity
00:00 +1°C° 0.4 mm 3 mps 644 mmHg 94%
01:00 +1°C° 0.4 mm 4 mps 644 mmHg 95%
02:00 +1°C° 0.4 mm 5 mps 643 mmHg 95%
03:00 +1°C° 2.3 mm 5 mps 642 mmHg 96%
04:00 +1°C° 2.3 mm 6 mps 641 mmHg 96%
05:00 +1°C° 2.3 mm 6 mps 641 mmHg 96%
06:00 +1°C° 0.9 mm 6 mps 640 mmHg 95%
07:00 +1°C° 0.9 mm 6 mps 640 mmHg 93%
08:00 +1°C° 0.9 mm 5 mps 640 mmHg 92%
09:00 +1°C° 0.2 mm 6 mps 640 mmHg 86%
10:00 +2°C° 0.2 mm 7 mps 641 mmHg 81%
11:00 +2°C° 0.2 mm 7 mps 641 mmHg 76%
12:00 +1°C° 0.1 mm 8 mps 642 mmHg 73%
13:00 +1°C° 0.1 mm 8 mps 642 mmHg 69%
14:00 +1°C° 0.1 mm 9 mps 643 mmHg 66%
15:00 +1°C° 0 mm 8 mps 643 mmHg 69%
16:00 +1°C° 0 mm 6 mps 643 mmHg 72%
17:00 0°C° 0 mm 5 mps 643 mmHg 74%
18:00 -1°C° 0 mm 4 mps 643 mmHg 76%
19:00 -2°C° 0 mm 4 mps 644 mmHg 78%
20:00 -2°C° 0 mm 4 mps 644 mmHg 80%
21:00 -1°C° 0.4 mm 3 mps 644 mmHg 84%
22:00 -2°C° 0.4 mm 3 mps 645 mmHg 87%
23:00 -2°C° 0.4 mm 3 mps 645 mmHg 90%

26 January, Tuesday

Time Temperature Precipitation Wind Pressure Humidity
00:00 -2°C° 0.1 mm 2 mps 645 mmHg 91%
01:00 -3°C° 0.1 mm 2 mps 645 mmHg 91%
02:00 -2°C° 0.1 mm 1 mps 646 mmHg 92%
03:00 -2°C° 0 mm 1 mps 646 mmHg 91%
04:00 -2°C° 0 mm 1 mps 646 mmHg 90%
05:00 -2°C° 0 mm 1 mps 647 mmHg 89%
06:00 -2°C° 0 mm 1 mps 647 mmHg 88%
07:00 -2°C° 0 mm 1 mps 648 mmHg 87%
08:00 -3°C° 0 mm 1 mps 649 mmHg 86%
09:00 -1°C° 0 mm 1 mps 649 mmHg 78%
10:00 0°C° 0 mm 1 mps 650 mmHg 69%
11:00 +1°C° 0 mm 1 mps 651 mmHg 60%
12:00 +2°C° 0 mm 1 mps 651 mmHg 59%
13:00 +2°C° 0 mm 1 mps 651 mmHg 58%
14:00 +2°C° 0 mm 1 mps 651 mmHg 56%
15:00 +1°C° 0.1 mm 1 mps 651 mmHg 62%
16:00 0°C° 0.1 mm 1 mps 650 mmHg 67%
17:00 -1°C° 0.1 mm 1 mps 650 mmHg 72%
18:00 -1°C° 0.1 mm 1 mps 650 mmHg 73%
19:00 -2°C° 0.1 mm 1 mps 650 mmHg 75%
20:00 -2°C° 0.1 mm 1 mps 650 mmHg 76%
21:00 -3°C° 0 mm 1 mps 650 mmHg 75%
22:00 -3°C° 0 mm 1 mps 650 mmHg 73%
23:00 -4°C° 0 mm 1 mps 650 mmHg 72%

27 January, Wednesday

Time Temperature Precipitation Wind Pressure Humidity
00:00 -4°C° 0 mm 1 mps 650 mmHg 70%
01:00 -4°C° 0 mm 1 mps 650 mmHg 67%
02:00 -4°C° 0 mm 1 mps 650 mmHg 65%
03:00 -4°C° 0 mm 1 mps 650 mmHg 63%
04:00 -6°C° 0 mm 1 mps 650 mmHg 60%
05:00 -6°C° 0 mm 1 mps 649 mmHg 58%
06:00 -6°C° 0 mm 1 mps 649 mmHg 57%
07:00 -6°C° 0 mm 1 mps 649 mmHg 56%
08:00 -6°C° 0 mm 1 mps 650 mmHg 55%
09:00 -3°C° 0 mm 1 mps 650 mmHg 48%
10:00 -2°C° 0 mm 1 mps 650 mmHg 40%
11:00 0°C° 0 mm 1 mps 651 mmHg 33%
12:00 +1°C° 0 mm 1 mps 650 mmHg 32%
13:00 -1°C° 0 mm 2 mps 650 mmHg 32%
14:00 -1°C° 0 mm 2 mps 650 mmHg 31%
15:00 -2°C° 0 mm 2 mps 650 mmHg 39%
16:00 -3°C° 0 mm 2 mps 649 mmHg 46%
17:00 -4°C° 0 mm 2 mps 649 mmHg 54%
18:00 -2°C° 0.1 mm 1 mps 649 mmHg 60%
19:00 -3°C° 0.1 mm 1 mps 649 mmHg 65%
20:00 -4°C° 0.1 mm 1 mps 649 mmHg 71%
21:00 -4°C° 0 mm 1 mps 649 mmHg 71%
22:00 -6°C° 0 mm 1 mps 649 mmHg 71%
23:00 -6°C° 0 mm 1 mps 649 mmHg 70%
Show more

We Need Your Consent

Meteoprog and our Service Providers may store and access personal data such as cookies, device identifiers or other similar technologies on your device and process such data to personalise content and ads, as well as provide social media features and to analyse the traffic.

  • Store and/or access information on your device

    Cookies, device identifiers or other information can be stored or accessed on your device for the purposes indicated above.

  • Personalised ads and content, ad and content measurement, audience insights, and products development

    Ads and content can be personalised based on a profile. More data can be added to better personalise ads and content. Ad and content performance can be measured. Insights about the audience who saw the ads and content can be derived. Such data can be used to develop or improve user’s experience, systems and software.

By clicking ‘I Agree’ you will allow the use of indicated cookies, device identifiers, web beacons or other similar technologies. Your settings can be changed in the browser on your device.

For certain purposes, legitimate interests may be relied on, rather than consent. You can read more about this in our Privacy and Cookie Policy.